Location: Gesvres
(49.0440°N, 2.8518°E)
Time: 10:55:07
(UTC+00:00)

SKYMED 2 - Pass Details

Date: 28 January 2023
Orbit: 621 x 623 km, 97.9° (Epoch: 24 March)

Event Time Altitude Azimuth Distance (km) Brightness Sun altitude
Rises 17:40:46 0° 17° (NNE) 2,920 6.7 -10.3°
Reaches altitude 10° 17:43:01 10° 23° (NNE) 2,008 5.8 -10.6°
Maximum altitude 17:47:18 52° 100° (E) 776 3.7 -11.3°
Drops below altitude 10° 17:51:32 10° 177° (S) 1,991 6.3 -12.0°
Sets 17:53:45 0° 183° (S) 2,892 7.2 -12.3°
